This demonstration page uses our WeatherBlox Daily Observations layout. Learn more.

Left ArrowRight Arrow

30.21309, -93.2044

Hourly Observations for October 7, 2015

Temp ( °F °C ) Dew Point ( °F °C ) Humidity (%) Winds ( mph kmh ) Pressure ( in mb ) Visibility ( mi km ) Precip ( " mm )
12:15 am 00:15 Clear 69 20.4 66 19.1 92 92 Calm 30.03 1017 10 16 0.00 0.00
12:35 am 00:35 Clear 69 20.8 66 19.1 90 90 Calm 30.00 1016 10 16 0.00 0.00
12:55 am 00:55 Clear 69 20.7 66 19 90 90 Calm 30.00 1016 10 16 0.00 0.00
1:15 am 01:15 Clear 68 20.2 66 18.7 91 91 Calm 30.00 1016 10 16 0.00 0.00
1:35 am 01:35 Clear 68 20.2 66 18.9 92 92 Calm 30.00 1016 10 16 0.00 0.00
1:55 am 01:55 Clear 68 19.9 66 18.7 93 93 Calm 30.00 1016 10 16 0.00 0.00
2:15 am 02:15 Clear 68 20.1 65 18.6 91 91 Calm 30.00 1016 10 16 0.00 0.00
2:35 am 02:35 Clear 68 20.1 65 18.5 91 91 Calm 30.00 1016 10 16 0.00 0.00
2:55 am 02:55 Clear 67 19.7 65 18.5 93 93 Calm 30.00 1016 10 16 0.00 0.00
3:15 am 03:15 Clear 67 19.5 64 18 91 91 Calm 30.00 1016 10 16 0.00 0.00
3:35 am 03:35 Clear 66 19 64 18 94 94 Calm 30.00 1016 10 16 0.00 0.00
3:55 am 03:55 Clear 67 19.3 65 18.2 93 93 Calm 30.00 1016 10 16 0.00 0.00
4:15 am 04:15 Clear 65 18.6 65 18.1 97 97 Calm 30.00 1016 10 16 0.00 0.00
4:35 am 04:35 Clear 66 18.8 65 18.1 96 96 Calm 30.00 1016 10 16 0.00 0.00
4:55 am 04:55 Clear 66 19.1 64 17.8 92 92 Calm 30.00 1016 10 16 0.00 0.00
5:15 am 05:15 Clear 66 19.1 64 17.9 93 93 Calm 30.00 1016 10 16 0.00 0.00
6:00 am 06:00 Mostly Clear 66 19 64 18 94 94 NNW 8 13 30.00 1016 10 16 0.00 0.00
6:55 am 06:55 Mostly Clear 66 19 63 17 88 88 NNW 8 13 30.03 1017 10 16 0.00 0.00
7:55 am 07:55 Mostly Sunny 68 20 63 17 83 83 NNE 8 13 30.06 1018 7 11 0.00 0.00
8:50 am 08:50 Mostly Sunny 73 23 64 18 74 74 NNE 8 13 30.06 1018 10 16 0.00 0.00
9:50 am 09:50 Mostly Sunny 77 25 66 19 69 69 ENE 3 6 30.09 1019 10 16 0.00 0.00
10:50 am 10:50 Mostly Sunny 82 28 64 18 55 55 ENE 5 7 30.09 1019 10 16 0.00 0.00
11:50 am 11:50 Mostly Sunny 82 28 64 18 55 55 ENE 3 6 30.09 1019 10 16 0.00 0.00
12:47 pm 12:47 Partly Cloudy 84 29 64 18 51 51 ENE 5 7 30.06 1018 10 16 0.00 0.00
12:50 pm 12:50 Partly Cloudy 84 29 64 18 51 51 ENE 5 7 30.06 1018 10 16 0.00 0.00
1:45 pm 13:45 Mostly Cloudy 88 31 66 19 49 49 ENE 7 11 30.03 1017 10 16 0.00 0.00
2:55 pm 14:55 Partly Cloudy 88 31 64 18 46 46 Calm 30.00 1016 10 16 0.00 0.00
3:50 pm 15:50 Partly Cloudy 88 31 64 18 46 46 Calm 30.00 1016 10 16 0.00 0.00
4:50 pm 16:50 Mostly Sunny 88 31 64 18 46 46 Calm 29.97 1015 10 16 0.00 0.00
5:50 pm 17:50 Mostly Sunny 88 31 64 18 46 46 Calm 29.97 1015 10 16 0.00 0.00
6:50 pm 18:50 Mostly Sunny 82 28 64 18 55 55 Calm 29.97 1015 10 16 0.00 0.00
7:50 pm 19:50 Mostly Clear 77 25 66 19 69 69 Calm 30.00 1016 10 16 0.00 0.00
9:50 pm 21:50 Mostly Clear 73 23 68 20 83 83 Calm 30.00 1016 10 16 0.00 0.00
10:15 pm 22:15 Clear 72 22 67 19.7 87 87 Calm 30.00 1016 10 16 0.00 0.00
10:35 pm 22:35 Clear 71 21.9 67 19.5 86 86 Calm 30.03 1017 10 16 0.00 0.00
10:55 pm 22:55 Clear 71 21.4 67 19.5 89 89 Calm 30.03 1017 10 16 0.00 0.00
11:15 pm 23:15 Clear 71 21.9 67 19.5 86 86 Calm 30.00 1016 10 16 0.00 0.00
11:35 pm 23:35 Clear 71 21.5 67 19.6 89 89 Calm 30.03 1017 10 16 0.00 0.00
11:55 pm 23:55 Clear 70 21.1 67 19.5 91 91 Calm 30.00 1016 10 16 0.00 0.00

Powered by AerisWeather